Tracking 35048 objects as of 19-Aug-2026
HD Live streaming from Space Station
objects crossing your sky now

PHI-1

Track PHI-1 now!
10-day predictions
PHI-1 is classified as:


NORAD ID: 66775
Int'l Code: 2025-276DP
Launch date: November 28, 2025
Source: (TBD)
Launch site: AIR FORCE WESTERN TEST RANGE (AFWTR)

Uplink (MHz):
Downlink (MHz): 436.850/2230.000
Beacon (MHz):
Mode: 9k6_GMSK
Call sign: PHI1
Status: Active

Your satellite tracking list
Your tracking list is empty




NASA's NSSDC Master Catalog

Two Line Element Set (TLE):
1 66775U 25276DP  26230.70047956  .00005444  00000-0  24171-3 0  9999
2 66775  97.4086 303.5235 0000560  40.8055 319.3223 15.21963204 39953
Source of the keplerian elements: AFSPC